[[{"header":{"parameterUnit":"m.s-1","parameterCategory":2,"la1":30.2992,"la2":30.254,"lo1":-89.0895,"lo2":-89.0443,"dy":0.0025,"dx":0.0025,"nx":19,"ny":19,"refTime":"2026-05-10T09:00:00:Z","depth":"0","parameterNumber":2,"parameterNumberName":"U-component_of_CURRENTS"},"data":[0,0,0,0.345,0.3452,0.3548,0.3548,0.3635,0.3636,0,0,0,0,0,0,0,0,0,0,0,0.3409,0.341,0.345,0.3452,0.3548,0.3548,0.3635,0.3636,0,0,0,0,0,0,0,0,0,0,0,0.3409,0.341,0.341,0.3453,0.3547,0.3548,0.3635,0.3572,0,0,0,0,0,0,0,0,0,0,0.3484,0.3441,0.341,0.341,0.3453,0.3547,0.3548,0.3569,0.3576,0.3581,0,0.3593,0,0.3619,0.3641,0.3641,0,0,0,0.3453,0.3436,0.3472,0.3411,0.3454,0.3547,0.3505,0.3573,0.358,0.359,0.3594,0.3598,0.362,0.3641,0.3642,0.367,0.3669,0,0,0.3448,0.3418,0.3467,0.3477,0.3474,0.3502,0.3508,0.3578,0.3576,0.3595,0.3601,0.3622,0.3642,0.3642,0.367,0.367,0,0,0,0.3432,0.3414,0.3449,0.3472,0.3494,0.3505,0.3512,0.3573,0.3588,0.3602,0.3623,0.3642,0.3643,0.367,0.367,0.3638,0,0,0,0.3429,0.3406,0.3447,0.3429,0.3493,0.3538,0.3505,0.3583,0.3592,0.3622,0.3642,0.3644,0.367,0.367,0.3639,0.3615,0,0,0,0.3406,0.3403,0.3415,0.3427,0.3471,0.3538,0.3556,0.3585,0.3605,0.3641,0.3644,0.3671,0.367,0.3641,0.3618,0.3601,0,0,0,0.3371,0.3385,0.3414,0.3436,0.347,0.3522,0.3556,0.3587,0.3613,0.3642,0.367,0.367,0.3641,0.362,0.3603,0.3624,0.3619,0,0,0.3371,0.3383,0.3399,0.3428,0.3459,0.3509,0.3533,0.3576,0.3606,0.3646,0.3647,0.3639,0.3618,0.3602,0.3591,0.3587,0,0,0,0.3388,0.339,0.3408,0.3432,0.348,0.3504,0.3552,0.3572,0.3604,0.3621,0.3636,0.3624,0.3615,0.3631,0.3627,0.3497,0.3667,0.3667,0.3667,0.331,0.3355,0.3372,0.3421,0.3448,0.3495,0.3515,0.3547,0.3586,0.3586,0.3596,0.3557,0.3574,0.3572,0.3437,0.3599,0.3599,0.3599,0.3599,0.3292,0.3295,0.3342,0.3376,0.3405,0.3425,0.348,0.3501,0.3529,0.3562,0.3556,0.3594,0.3566,0.3424,0.3597,0.3597,0.3598,0.3598,0.3598,0.3234,0.3239,0.3276,0.3308,0.3323,0.3373,0.3374,0.3431,0.3486,0.3486,0.3518,0.3519,0.3396,0.3491,0.3491,0.3491,0.349,0.349,0.349,0.3145,0.3186,0.3191,0.3232,0.3236,0.3252,0.3312,0.3333,0.3414,0.3476,0.3476,0.3361,0.3525,0.3531,0.3487,0.3488,0.3488,0.3488,0.3489,0.3067,0.3082,0.3094,0.3101,0.311,0.3083,0.3179,0.3264,0.3309,0.3353,0.3309,0.3476,0.3487,0.3491,0.3497,0.3447,0.3447,0.3447,0.3447,0.2988,0.3005,0.3001,0.2995,0.2975,0.2997,0.2985,0.3094,0.3197,0.3216,0.3215,0.3223,0.3231,0.3227,0.3237,0.3237,0.3122,0.3121,0.312,0.293,0.2948,0.2921,0.2931,0.2908,0.2889,0.2858,0.2881,0.3024,0.3091,0.302,0.3034,0.3031,0.3054,0.3042,0.3066,0.3066,0,0]},{"header":{"parameterUnit":"m.s-1","parameterCategory":2,"la1":30.2992,"la2":30.254,"lo1":-89.0895,"lo2":-89.0443,"dy":0.0025,"dx":0.0025,"nx":19,"ny":19,"refTime":"2026-05-10T09:00:00:Z","depth":"0","parameterNumber":3,"parameterNumberName":"V-component_of_CURRENTS"},"data":[0,0,0,-0.0869,-0.0871,-0.0981,-0.0982,-0.1073,-0.1074,0,0,0,0,0,0,0,0,0,0,0,-0.0824,-0.0825,-0.0869,-0.0871,-0.0981,-0.0982,-0.1073,-0.1074,0,0,0,0,0,0,0,0,0,0,0,-0.0824,-0.0825,-0.0825,-0.0872,-0.0981,-0.0982,-0.1073,-0.1004,0,0,0,0,0,0,0,0,0,0,-0.0904,-0.0859,-0.0824,-0.0825,-0.0872,-0.0981,-0.0982,-0.1001,-0.1008,-0.1007,0,-0.1016,0,-0.1046,-0.1078,-0.1078,0,0,0,-0.0879,-0.0853,-0.089,-0.0825,-0.0873,-0.098,-0.0934,-0.1006,-0.1013,-0.1016,-0.1018,-0.1022,-0.1047,-0.1078,-0.1079,-0.1063,-0.1063,0,0,-0.0873,-0.0839,-0.0885,-0.0895,-0.0891,-0.093,-0.0937,-0.1011,-0.1008,-0.1018,-0.1025,-0.1049,-0.1079,-0.1079,-0.1064,-0.1063,0,0,0,-0.085,-0.0834,-0.0871,-0.089,-0.0914,-0.0933,-0.0941,-0.1005,-0.102,-0.1026,-0.105,-0.1079,-0.108,-0.1065,-0.1064,-0.1009,0,0,0,-0.0847,-0.0821,-0.0868,-0.0848,-0.0912,-0.0966,-0.0933,-0.1014,-0.1024,-0.1049,-0.1079,-0.108,-0.1065,-0.1064,-0.1012,-0.0967,0,0,0,-0.0821,-0.0818,-0.083,-0.0846,-0.0892,-0.0965,-0.0985,-0.1018,-0.1038,-0.1078,-0.1081,-0.1066,-0.1064,-0.1015,-0.0972,-0.0914,0,0,0,-0.0785,-0.0792,-0.0828,-0.0842,-0.0891,-0.0937,-0.0985,-0.1023,-0.1053,-0.1079,-0.1065,-0.1064,-0.1016,-0.0976,-0.0917,-0.0786,-0.076,0,0,-0.0775,-0.0789,-0.0799,-0.0835,-0.0862,-0.0924,-0.0935,-0.0996,-0.1026,-0.1041,-0.1041,-0.1011,-0.0973,-0.0915,-0.0698,-0.0674,0,0,0,-0.0784,-0.0789,-0.0804,-0.0829,-0.0872,-0.0889,-0.0955,-0.0965,-0.098,-0.1036,-0.0995,-0.0972,-0.0937,-0.0865,-0.0846,-0.0702,-0.1057,-0.1057,-0.1057,-0.072,-0.0756,-0.0765,-0.0807,-0.0824,-0.0866,-0.0869,-0.0888,-0.0941,-0.0922,-0.0917,-0.0817,-0.0739,-0.0723,-0.0576,-0.0915,-0.0915,-0.0915,-0.0915,-0.0697,-0.07,-0.0729,-0.0751,-0.0765,-0.0772,-0.0785,-0.0807,-0.0781,-0.084,-0.081,-0.0797,-0.0698,-0.0549,-0.0911,-0.0912,-0.0912,-0.0912,-0.0913,-0.065,-0.0655,-0.0676,-0.069,-0.0683,-0.0709,-0.0655,-0.0685,-0.0708,-0.0682,-0.0607,-0.0607,-0.0485,-0.0675,-0.0674,-0.0674,-0.0673,-0.0673,-0.0673,-0.0587,-0.0611,-0.0604,-0.0628,-0.0618,-0.0596,-0.0578,-0.0541,-0.0499,-0.051,-0.0509,-0.0406,-0.0743,-0.0763,-0.0665,-0.0667,-0.0668,-0.0668,-0.0669,-0.0535,-0.054,-0.0526,-0.0518,-0.0497,-0.0377,-0.0398,-0.0266,-0.0264,-0.0205,-0.0118,-0.0415,-0.0413,-0.0428,-0.0439,-0.0264,-0.0264,-0.0264,-0.0264,-0.0478,-0.049,-0.0441,-0.0406,-0.0353,-0.0271,0.0004,0.012,0.0165,0.0215,0.0129,0.0119,0.0096,0.0124,0.0097,0.0095,0.0402,0.0403,0.0404,-0.0432,-0.0424,-0.0365,-0.0344,-0.0277,-0.0101,0.0273,0.063,0.0612,0.0439,0.0311,0.0283,0.0267,0.0219,0.0253,0.0203,0.0194,0,0]}],[{"header":{"parameterUnit":"m.s-1","parameterCategory":2,"la1":30.2992,"la2":30.254,"lo1":-89.0895,"lo2":-89.0443,"dy":0.0025,"dx":0.0025,"nx":19,"ny":19,"refTime":"2026-05-10T09:00:00:Z","depth":"2","parameterNumber":2,"parameterNumberName":"U-component_of_CURRENTS"},"data":[0,0,0,0.1785,0.1786,0.1862,0.1862,0.1927,0.1927,0,0,0,0,0,0,0,0,0,0,0,0.1764,0.1764,0.1785,0.1787,0.1862,0.1862,0.1926,0.1927,0,0,0,0,0,0,0,0,0,0,0,0.1763,0.1764,0.1765,0.1787,0.1862,0.1862,0.1926,0.1878,0,0,0,0,0,0,0,0,0,0,0.1808,0.1805,0.1764,0.1765,0.1787,0.1862,0.1862,0.1876,0.1881,0.1883,0,0.1902,0,0.1914,0.1931,0.1931,0,0,0,0.1787,0.1801,0.1809,0.1765,0.1788,0.1861,0.1828,0.1879,0.1884,0.189,0.1903,0.1906,0.1915,0.1931,0.1931,0.2043,0.2044,0,0,0.1783,0.1787,0.1805,0.1813,0.1817,0.1825,0.183,0.1882,0.1898,0.1904,0.1907,0.1916,0.1931,0.1932,0.2042,0.2043,0,0,0,0.1771,0.1785,0.1793,0.181,0.1825,0.1828,0.1833,0.1896,0.1896,0.1908,0.1917,0.1932,0.1932,0.2041,0.2043,0.2099,0,0,0,0.1768,0.1777,0.1791,0.1796,0.1825,0.1869,0.1846,0.1893,0.1899,0.1916,0.1932,0.1933,0.204,0.2042,0.2095,0.2106,0,0,0,0.1759,0.1776,0.1785,0.1795,0.1826,0.1868,0.1872,0.1894,0.1904,0.1931,0.1933,0.204,0.2042,0.2092,0.2101,0.2177,0,0,0,0.176,0.1772,0.1786,0.1812,0.1825,0.1869,0.1872,0.1903,0.1925,0.1932,0.204,0.2042,0.2091,0.2099,0.2173,0.201,0.2014,0,0,0.1766,0.1773,0.1787,0.18,0.1829,0.1858,0.1921,0.1944,0.1961,0.2019,0.2022,0.2096,0.2101,0.2176,0.2124,0.2123,0,0,0,0.1782,0.1789,0.1803,0.1831,0.1865,0.1919,0.195,0.1992,0.2068,0.1985,0.2121,0.2122,0.2168,0.2063,0.2063,0.2052,0.2052,0.2051,0.2051,0.1792,0.1804,0.1827,0.1851,0.1893,0.1965,0.2031,0.21,0.2101,0.2159,0.2187,0.2304,0.2193,0.2192,0.2215,0.2215,0.2215,0.2216,0.2216,0.1797,0.1804,0.1844,0.1872,0.1935,0.2003,0.2123,0.2163,0.23,0.2269,0.2312,0.2149,0.2195,0.2221,0.222,0.2219,0.2219,0.2218,0.2218,0.1793,0.1792,0.1827,0.188,0.1958,0.2043,0.2147,0.2252,0.2344,0.2404,0.2308,0.2304,0.2331,0.244,0.244,0.2441,0.2441,0.2441,0.2442,0.1771,0.1794,0.1822,0.1889,0.1931,0.2025,0.2184,0.2268,0.2344,0.2355,0.2354,0.238,0.2373,0.2345,0.2448,0.2447,0.2446,0.2445,0.2445,0.1734,0.176,0.1791,0.1828,0.1914,0.1935,0.2106,0.2197,0.2298,0.2302,0.2334,0.2335,0.2303,0.2299,0.2271,0.2348,0.2348,0.2348,0.2348,0.1705,0.172,0.1758,0.1792,0.1836,0.1889,0.1876,0.1899,0.2024,0.2014,0.2028,0.1912,0.1923,0.1864,0.187,0.1831,0.1794,0.1793,0.1792,0.1674,0.1696,0.171,0.1758,0.179,0.1795,0.1711,0.1559,0.156,0.1769,0.1921,0.2313,0.2177,0.2181,0.2115,0.2116,0.2062,0,0]},{"header":{"parameterUnit":"m.s-1","parameterCategory":2,"la1":30.2992,"la2":30.254,"lo1":-89.0895,"lo2":-89.0443,"dy":0.0025,"dx":0.0025,"nx":19,"ny":19,"refTime":"2026-05-10T09:00:00:Z","depth":"2","parameterNumber":3,"parameterNumberName":"V-component_of_CURRENTS"},"data":[0,0,0,0.0222,0.0221,0.0132,0.0131,0.0062,0.0061,0,0,0,0,0,0,0,0,0,0,0,0.0245,0.0245,0.0222,0.022,0.0132,0.0131,0.0062,0.0061,0,0,0,0,0,0,0,0,0,0,0,0.0245,0.0245,0.0244,0.022,0.0132,0.0131,0.0062,0.0114,0,0,0,0,0,0,0,0,0,0,0.0193,0.0211,0.0245,0.0244,0.022,0.0132,0.0131,0.0116,0.0111,0.0119,0,0.0106,0,0.0093,0.0059,0.0059,0,0,0,0.0206,0.0215,0.0198,0.0244,0.0219,0.0132,0.0168,0.0113,0.0107,0.0112,0.0105,0.0102,0.0092,0.0059,0.0059,0.0124,0.0125,0,0,0.0211,0.0222,0.0202,0.0195,0.0199,0.0171,0.0165,0.0109,0.0101,0.0105,0.01,0.0091,0.0058,0.0058,0.0123,0.0124,0,0,0,0.0235,0.0225,0.0208,0.0198,0.0184,0.0169,0.0162,0.0103,0.0099,0.01,0.009,0.0058,0.0058,0.0122,0.0123,0.0217,0,0,0,0.0237,0.024,0.0211,0.0215,0.0185,0.0136,0.0158,0.0102,0.0096,0.009,0.0058,0.0058,0.0121,0.0122,0.0212,0.0278,0,0,0,0.0249,0.0241,0.0233,0.0216,0.0186,0.0137,0.0128,0.01,0.0091,0.0059,0.0057,0.012,0.0122,0.0208,0.027,0.0365,0,0,0,0.026,0.0273,0.0233,0.025,0.0187,0.0196,0.0128,0.0107,0.0084,0.0058,0.0121,0.0123,0.0206,0.0265,0.036,0.044,0.0473,0,0,0.0292,0.0276,0.0292,0.0256,0.029,0.0207,0.0252,0.0177,0.0127,0.0137,0.0138,0.0213,0.0269,0.0364,0.0574,0.0602,0,0,0,0.0314,0.0325,0.0329,0.0332,0.032,0.0331,0.0257,0.0247,0.0234,0.0127,0.0235,0.0268,0.0324,0.0361,0.0385,0.0134,0.0134,0.0133,0.0133,0.0368,0.0373,0.0414,0.0423,0.043,0.0411,0.0429,0.0407,0.0322,0.0342,0.0358,0.0518,0.0558,0.0577,0.0361,0.0362,0.0362,0.0362,0.0362,0.0447,0.0486,0.0491,0.0525,0.0539,0.0559,0.0588,0.0548,0.0597,0.0491,0.0541,0.0476,0.0608,0.037,0.0369,0.0368,0.0367,0.0366,0.0366,0.0498,0.0524,0.0527,0.0589,0.0639,0.0645,0.0757,0.0732,0.07,0.0747,0.0767,0.0765,0.0584,0.0748,0.0749,0.075,0.0751,0.0751,0.0752,0.0552,0.057,0.0618,0.0665,0.0708,0.0777,0.0849,0.0926,0.0963,0.0909,0.0909,0.0649,0.0636,0.0608,0.0763,0.0761,0.0759,0.0758,0.0758,0.0637,0.0629,0.0717,0.0762,0.0881,0.1016,0.1058,0.1209,0.1261,0.1313,0.1016,0.1006,0.0992,0.0973,0.0953,0.1189,0.1189,0.1189,0.1189,0.069,0.0696,0.0818,0.0922,0.106,0.1144,0.1331,0.1328,0.1298,0.1164,0.1164,0.1063,0.1049,0.1029,0.1008,0.0985,0.1229,0.1228,0.1228,0.0755,0.0788,0.0885,0.0977,0.114,0.1294,0.14,0.1285,0.1135,0.1218,0.1048,0.1215,0.1063,0.1042,0.1001,0.0972,0.093,0,0]}],[{"header":{"parameterUnit":"m.s-1","parameterCategory":2,"la1":30.2992,"la2":30.254,"lo1":-89.0895,"lo2":-89.0443,"dy":0.0025,"dx":0.0025,"nx":19,"ny":19,"refTime":"2026-05-10T09:00:00:Z","depth":"4","parameterNumber":2,"parameterNumberName":"U-component_of_CURRENTS"},"data":[0,0,0,0.0287,0.0289,0.0372,0.0373,0.0453,0.0453,0,0,0,0,0,0,0,0,0,0,0,0.0263,0.0264,0.0287,0.0289,0.0372,0.0373,0.0452,0.0453,0,0,0,0,0,0,0,0,0,0,0,0.0263,0.0264,0.0265,0.0289,0.0372,0.0373,0.0452,0.0397,0,0,0,0,0,0,0,0,0,0,0.032,0.03,0.0264,0.0265,0.029,0.0372,0.0373,0.0395,0.0401,0.0405,0,0.0422,0,0.0435,0.0457,0.0458,0,0,0,0.0294,0.0296,0.0316,0.0265,0.029,0.0372,0.0336,0.0398,0.0405,0.0413,0.0423,0.0426,0.0436,0.0458,0.0458,0.055,0.0551,0,0,0.0289,0.028,0.0312,0.032,0.0317,0.0333,0.0339,0.0403,0.0412,0.0424,0.0428,0.0437,0.0458,0.0459,0.055,0.055,0,0,0,0.0273,0.0277,0.0297,0.0317,0.0332,0.0336,0.0342,0.0409,0.0415,0.0429,0.0438,0.0459,0.0459,0.0549,0.055,0.0676,0,0,0,0.027,0.0267,0.0294,0.029,0.0331,0.0375,0.0347,0.0411,0.0419,0.0438,0.0459,0.046,0.0549,0.055,0.0671,0.0679,0,0,0,0.0259,0.0265,0.0276,0.0289,0.0323,0.0375,0.0385,0.0413,0.0424,0.0458,0.046,0.0548,0.0549,0.0667,0.0673,0.069,0,0,0,0.0244,0.0256,0.0276,0.0303,0.0322,0.0383,0.0385,0.0435,0.0467,0.0459,0.0549,0.055,0.0665,0.067,0.0687,0.0556,0,0,0,0.0246,0.0256,0.0274,0.0293,0.0346,0.0371,0.045,0.0489,0.0487,0.0525,0.0528,0.0672,0.0673,0.0689,0.0632,0,0,0,0,0.0266,0.0279,0.03,0.0341,0.0387,0.0462,0.0501,0.0529,0.0605,0.0511,0.0663,0.0658,0.0665,0.0579,0.0556,0.0556,0.0556,0.0556,0.0556,0.0259,0.0292,0.0326,0.0381,0.0441,0.053,0.06,0.0647,0.065,0.0705,0.0756,0.0841,0.0758,0.0773,0.0773,0.0774,0.0774,0.0775,0.0775,0.0267,0.0286,0.0354,0.0404,0.0498,0.0594,0.071,0.0755,0.0858,0.0839,0.0842,0.0712,0.0787,0.0785,0.0783,0.0782,0.0781,0.078,0.0779,0.0255,0.0265,0.031,0.0404,0.0526,0.065,0.077,0.0879,0.0928,0.0989,0.0863,0.0895,0.0886,0.1001,0.1001,0.1001,0.1001,0.1002,0.1002,0.0222,0.0257,0.0304,0.0411,0.0497,0.0646,0.0819,0.0878,0.0957,0.0945,0.1012,0.0915,0.0908,0.0896,0.1004,0.1004,0.1003,0.1003,0.1003,0.0191,0.0218,0.0279,0.0345,0.0507,0.0598,0.0766,0.0845,0.0892,0.0879,0.0909,0.0913,0.0834,0.0828,0.0811,0.0897,0.0896,0.0895,0,0.0164,0.0182,0.0248,0.0319,0.0423,0.0552,0.0631,0.0708,0.0767,0.0753,0.0838,0.0866,0.087,0.0774,0.0766,0.0741,0,0,0,0.0141,0.0172,0.0197,0.0267,0.0364,0.0505,0.0645,0.0639,0.0803,0.0777,0.0862,0.087,0.0899,0.1012,0.0899,0.089,0.0864,0,0]},{"header":{"parameterUnit":"m.s-1","parameterCategory":2,"la1":30.2992,"la2":30.254,"lo1":-89.0895,"lo2":-89.0443,"dy":0.0025,"dx":0.0025,"nx":19,"ny":19,"refTime":"2026-05-10T09:00:00:Z","depth":"4","parameterNumber":3,"parameterNumberName":"V-component_of_CURRENTS"},"data":[0,0,0,0.0616,0.0617,0.0662,0.0662,0.0659,0.0659,0,0,0,0,0,0,0,0,0,0,0,0.061,0.0611,0.0616,0.0617,0.0662,0.0662,0.0659,0.0659,0,0,0,0,0,0,0,0,0,0,0,0.061,0.0611,0.0612,0.0618,0.0662,0.0662,0.0659,0.064,0,0,0,0,0,0,0,0,0,0,0.0604,0.0607,0.0611,0.0612,0.0618,0.0662,0.0662,0.064,0.0641,0.0622,0,0.0641,0,0.0645,0.0657,0.0657,0,0,0,0.0616,0.0607,0.0617,0.0612,0.0618,0.0662,0.0641,0.0641,0.0642,0.0624,0.0641,0.0641,0.0645,0.0657,0.0657,0.06,0.06,0,0,0.0613,0.0615,0.0617,0.0619,0.0644,0.064,0.0643,0.0642,0.0649,0.0641,0.0641,0.0645,0.0657,0.0657,0.0601,0.06,0,0,0,0.0607,0.0613,0.0625,0.0619,0.0629,0.0641,0.0644,0.0649,0.0654,0.0641,0.0645,0.0657,0.0657,0.0601,0.06,0.063,0,0,0,0.0606,0.061,0.0625,0.0625,0.063,0.0648,0.0651,0.0654,0.0654,0.0645,0.0657,0.0656,0.0602,0.0601,0.063,0.0643,0,0,0,0.0606,0.0609,0.0619,0.0625,0.0644,0.0648,0.0653,0.0655,0.0656,0.0657,0.0656,0.0602,0.0601,0.0631,0.0643,0.059,0,0,0,0.0598,0.0609,0.062,0.0639,0.0644,0.0655,0.0653,0.0662,0.0664,0.0657,0.0601,0.06,0.0631,0.0643,0.0591,0.0634,0,0,0,0.0601,0.061,0.0621,0.0631,0.0642,0.0648,0.0644,0.0648,0.0635,0.0598,0.0598,0.063,0.0643,0.059,0.0568,0,0,0,0,0.0614,0.063,0.0634,0.0652,0.0654,0.0656,0.0658,0.0631,0.061,0.0632,0.0599,0.0605,0.0571,0.0598,0.0595,0.0595,0.0595,0.0595,0.0596,0.0626,0.0634,0.0648,0.0664,0.0675,0.0654,0.0635,0.0597,0.0602,0.0582,0.0607,0.0557,0.0585,0.058,0.058,0.058,0.058,0.058,0.058,0.0645,0.0652,0.0671,0.0699,0.0692,0.0707,0.0635,0.0617,0.0558,0.0577,0.0542,0.06,0.0582,0.0582,0.0582,0.0581,0.0581,0.0581,0.0581,0.0653,0.065,0.0689,0.0731,0.0756,0.0755,0.0724,0.0671,0.0587,0.0564,0.0562,0.0551,0.0572,0.055,0.055,0.055,0.055,0.055,0.055,0.0639,0.0662,0.071,0.0765,0.0814,0.0846,0.0788,0.0723,0.0629,0.0584,0.0575,0.0546,0.0547,0.0567,0.0547,0.0547,0.0548,0.0548,0.0548,0.0621,0.0655,0.072,0.0774,0.086,0.0877,0.0854,0.0725,0.0636,0.0539,0.0562,0.0562,0.0544,0.0544,0.0564,0.0542,0.0543,0.0543,0,0.0606,0.0626,0.072,0.0785,0.084,0.0864,0.0809,0.0729,0.0591,0.0605,0.0564,0.0593,0.0592,0.0576,0.0576,0.0602,0,0,0,0.0586,0.0628,0.0685,0.0762,0.0823,0.0784,0.0785,0.0732,0.0673,0.0571,0.0555,0.0552,0.056,0.0539,0.0509,0.0511,0.0541,0,0]}]]